TimeEST,TemperatureF,Dew PointF,Humidity,Sea Level PressureIn,VisibilityMPH,Wind Direction,Wind SpeedMPH,Gust SpeedMPH,PrecipitationIn,Events,Conditions,WindDirDegrees,DateUTC
12:53 AM,26.1,24.1,92,30.22,9.0,Calm,Calm,-,N/A,,Clear,0,2012-12-07 05:53:00
1:53 AM,27.0,24.1,89,30.21,9.0,Calm,Calm,-,N/A,,Clear,0,2012-12-07 06:53:00
2:53 AM,30.0,27.0,88,30.20,10.0,Calm,Calm,-,N/A,,Overcast,0,2012-12-07 07:53:00
3:53 AM,32.0,25.0,75,30.19,10.0,Calm,Calm,-,N/A,,Clear,0,2012-12-07 08:53:00
4:53 AM,34.0,25.0,70,30.17,10.0,SSW,3.5,-,N/A,,Overcast,200,2012-12-07 09:53:00
5:53 AM,33.1,28.0,82,30.17,5.0,Calm,Calm,-,0.02,Rain,Light Rain,0,2012-12-07 10:53:00
6:53 AM,33.1,30.9,92,30.16,7.0,Calm,Calm,-,0.02,Rain,Light Rain,0,2012-12-07 11:53:00
7:53 AM,34.0,30.9,89,30.17,2.0,Calm,Calm,-,0.05,Rain,Rain,0,2012-12-07 12:53:00
8:06 AM,33.8,30.2,87,30.15,4.0,Calm,Calm,-,0.00,Rain,Light Rain,0,2012-12-07 13:06:00
8:15 AM,33.8,32.0,93,30.15,1.8,Calm,Calm,-,0.01,Rain,Light Rain,0,2012-12-07 13:15:00
8:23 AM,33.8,32.0,93,30.15,1.5,Calm,Calm,-,0.01,Rain,Light Rain,0,2012-12-07 13:23:00
8:36 AM,33.8,32.0,93,30.15,1.5,Calm,Calm,-,0.02,Rain,Light Rain,0,2012-12-07 13:36:00
8:53 AM,34.0,32.0,92,30.17,1.2,Calm,Calm,-,0.03,Rain,Rain,0,2012-12-07 13:53:00
9:42 AM,33.8,33.8,100,30.15,1.0,Calm,Calm,-,0.05,Rain,Rain,0,2012-12-07 14:42:00
9:53 AM,34.0,33.1,96,30.17,1.0,Calm,Calm,-,0.06,Rain,Light Rain,0,2012-12-07 14:53:00
10:04 AM,33.8,33.8,100,30.16,1.5,Calm,Calm,-,0.00,Rain,Light Rain,0,2012-12-07 15:04:00
10:45 AM,35.6,33.8,93,30.14,2.5,SW,3.5,-,0.02,Rain,Light Rain,230,2012-12-07 15:45:00
10:53 AM,35.1,34.0,96,30.16,2.5,Calm,Calm,-,0.02,Rain,Light Rain,0,2012-12-07 15:53:00
11:14 AM,35.6,33.8,93,30.13,3.0,SW,3.5,-,0.01,Rain,Light Rain,230,2012-12-07 16:14:00
11:53 AM,36.0,35.1,97,30.12,4.0,Calm,Calm,-,0.01,,Overcast,0,2012-12-07 16:53:00
12:41 PM,37.4,35.6,93,30.07,3.0,South,4.6,-,0.01,Rain,Light Rain,180,2012-12-07 17:41:00
12:53 PM,37.0,36.0,96,30.08,4.0,South,5.8,-,0.02,Rain,Light Rain,180,2012-12-07 17:53:00
1:17 PM,37.4,35.6,93,30.07,3.0,SW,3.5,-,0.01,Rain,Light Rain,230,2012-12-07 18:17:00
1:28 PM,37.4,35.6,93,30.06,4.0,Calm,Calm,-,0.01,Rain,Light Rain,0,2012-12-07 18:28:00
1:53 PM,37.0,37.0,100,30.08,4.0,Variable,3.5,-,0.01,Rain,Light Rain,0,2012-12-07 18:53:00
2:49 PM,37.4,37.4,100,30.05,2.5,Calm,Calm,-,0.02,Rain,Light Rain,0,2012-12-07 19:49:00
2:53 PM,37.0,37.0,100,30.07,2.5,Calm,Calm,-,0.02,Rain,Light Rain,0,2012-12-07 19:53:00
3:30 PM,37.4,37.4,100,30.06,3.0,WSW,3.5,-,0.03,Rain,Light Rain,250,2012-12-07 20:30:00
3:49 PM,37.4,37.4,100,30.06,3.0,SW,3.5,-,0.03,Rain,Light Rain,220,2012-12-07 20:49:00
3:53 PM,37.0,37.0,100,30.07,4.0,Calm,Calm,-,0.03,Rain,Light Rain,0,2012-12-07 20:53:00
4:23 PM,37.4,37.4,100,30.06,3.0,Calm,Calm,-,0.00,Rain,Light Rain,0,2012-12-07 21:23:00
4:53 PM,37.9,37.9,100,30.07,5.0,Calm,Calm,-,0.01,Rain,Light Rain,0,2012-12-07 21:53:00
5:53 PM,37.9,37.9,100,30.07,5.0,Calm,Calm,-,0.01,Rain,Light Rain,0,2012-12-07 22:53:00
6:53 PM,37.9,37.9,100,30.07,4.0,Calm,Calm,-,0.02,Rain,Light Rain,0,2012-12-07 23:53:00
7:53 PM,37.9,37.9,100,30.07,5.0,Calm,Calm,-,0.01,Rain,Light Rain,0,2012-12-08 00:53:00
8:53 PM,37.9,37.9,100,30.06,3.0,Calm,Calm,-,0.03,Rain,Rain,0,2012-12-08 01:53:00
9:23 PM,37.4,37.4,100,30.03,2.5,Calm,Calm,-,0.03,Rain,Light Rain,0,2012-12-08 02:23:00
9:38 PM,37.4,37.4,100,30.03,3.0,Calm,Calm,-,0.04,Rain,Light Rain,0,2012-12-08 02:38:00
9:53 PM,37.9,37.9,100,30.04,3.0,Calm,Calm,-,0.06,Rain,Light Rain,0,2012-12-08 02:53:00
10:01 PM,37.4,37.4,100,30.03,2.5,Calm,Calm,-,0.01,Rain,Rain,0,2012-12-08 03:01:00
10:32 PM,37.4,37.4,100,30.01,2.5,Calm,Calm,-,0.03,Rain,Light Rain,0,2012-12-08 03:32:00
10:45 PM,37.4,37.4,100,30.01,3.0,North,3.5,-,0.04,Rain,Light Rain,350,2012-12-08 03:45:00
10:53 PM,37.9,37.9,100,30.03,3.0,WNW,3.5,-,0.05,Rain,Light Rain,300,2012-12-08 03:53:00
11:07 PM,37.4,37.4,100,30.01,3.0,Calm,Calm,-,0.01,Rain,Rain,0,2012-12-08 04:07:00
11:14 PM,37.4,37.4,100,30.01,2.5,Calm,Calm,-,0.01,Rain,Light Rain,0,2012-12-08 04:14:00
11:21 PM,37.4,37.4,100,30.01,3.0,Calm,Calm,-,0.02,Rain,Light Rain,0,2012-12-08 04:21:00
11:53 PM,37.9,37.9,100,30.02,3.0,Calm,Calm,-,0.04,Rain,Light Rain,0,2012-12-08 04:53:00